Flag for Canada Weather past 2 weeks in London, Ontario, Canada

Now
64 °F

Drizzle. Fog.


Feels Like: 64 °F
Forecast: 50 / 67 °F
Wind: 12 mph from Southwest

Location: London Weather Station

Current Time: Sep 21, 2014 at 5:03:18 AM

Latest Report: Sep 21, 2014 at 4:00 AM


Visibility: 5 mi

Pressure: 29.69 "Hg

Humidity: 94%

Dew point: 63 °F

Location of LondonLocation

Historic Weather in London — Graph

°F

London temperature yesterday

Maximum temperature yesterday: 73 °F (at 2:00 PM)
Minimum temperature yesterday: 45 °F (at 1:00 AM)
Average temperature yesterday: 62 °F

Past Weeks' High & Low Weather Summary

 TemperatureHumidityPressure
High75 °F (Sep 8, 3:00 PM)100% (Sep 6, 5:46 AM)30.37 "Hg (Sep 6, 5:46 AM)
Low39 °F (Sep 19, 6:00 AM)41% (Sep 7, 4:00 PM)29.58 "Hg (Sep 11, 1:00 AM)
Average57 °F83%30.09 "Hg
* Reported Sep 6 3:00 AM — Sep 21 3:00 AM, London, Weather by CustomWeather, © 2014

Note: Actual official high and low records may vary slightly from our data, if they occured in-between our weather recording intervals... More about our weather records

Advertising

London weather history for previous 24 hours

 ConditionsComfort  
Time TempWeatherWind HumidityBarometerVisibility
3:00 AM
Sep 21
64 °FLow clouds.13 mph94%29.71 "Hg10 mi
2:00 AM63 °FMostly cloudy.12 mph94%29.75 "Hg15 mi
1:00 AM64 °FPassing clouds.12 mph88%29.77 "Hg15 mi
12:00 AM64 °FPassing clouds.10 mph94%29.78 "Hg10 mi
11:00 PM
Sep 20
64 °FMostly cloudy.12 mph94%29.79 "Hg10 mi
10:00 PM66 °FSprinkles. Fog.20 mph83%29.80 "Hg4 mi
9:46 PM68 °FSprinkles. Fog.15 mph83%29.80 "Hg4 mi
9:00 PM70 °FMostly cloudy.14 mph73%29.80 "Hg15 mi
8:00 PM70 °FMostly cloudy.12 mph73%29.80 "Hg15 mi
7:00 PM72 °FPartly sunny.16 mph69%29.80 "Hg15 mi
6:00 PM72 °FPartly sunny.14 mph69%29.82 "Hg15 mi
5:00 PM73 °FBroken clouds.17 mph65%29.83 "Hg15 mi
4:00 PM73 °FBroken clouds.20 mph69%29.87 "Hg15 mi
3:00 PM73 °FPartly sunny.28 mph65%29.87 "Hg15 mi
2:00 PM73 °FPartly sunny.18 mph69%29.88 "Hg15 mi
1:00 PM72 °FPartly sunny.21 mph73%29.91 "Hg15 mi
9:00 AM63 °FScattered clouds.15 mph88%30.01 "Hg10 mi
8:00 AM61 °FPassing clouds.12 mph94%30.01 "Hg8 mi
7:53 AM59 °FFog.13 mph100%30.01 "Hg3 mi
7:00 AM52 °FFog.7 mph100%30.01 "Hg2 mi
6:00 AM52 °FFog.5 mph100%30.02 "Hg2 mi
5:00 AM52 °FPassing clouds.5 mph100%30.01 "Hg8 mi
Weather by CustomWeather, © 2014

See weather overviewHow to use our weather pages